Regional Weather Roundup
Issued by NWS

Home | Current Version | Previous Version | Graphics & Text | Print | Product List | Glossary On
Versions: 1 2 3 4 5 6 7 8 9 10 11 12 13 14 15 16 17 18 19 20 21 22 23 24 25 26 27 28 29 30 31 32 33 34 35 36 37 38 39 40 41 42 43 44 45 46 47 48 49 50
000
ASUS45 KCYS 010810
RWRWY

WYOMING REGIONAL WEATHER ROUNDUP
NATIONAL WEATHER SERVICE CHEYENNE WY
200 AM MDT SAT AUG 01 2015

NOTE:  "FAIR" INDICATES FEW OR NO CLOUDS BELOW 12,000 FEET
WITH NO SIGNIFICANT WEATHER AND/OR OBSTRUCTIONS TO VISIBILITY.

WYZ001-010900-
YELLOWSTONE NATIONAL PARK

CITY           SKY/WX    TMP DP  RH WIND       PRES   REMARKS
LK YELLOWSTONE   N/A     42  31  64 NW3       30.45F
W YELLOWSTONE  NOT AVBL

$$
WYZ002>013-054>058-071-098>099-010900-
NORTHERN WYOMING

CITY           SKY/WX    TMP DP  RH WIND       PRES   REMARKS
JACKSON        NOT AVBL
CODY           FAIR      66  30  26 SW5       30.22F
GREYBULL       FAIR      73  36  25 CALM      30.08F
WORLAND        FAIR      65  36  34 SW3       30.11F
SHERIDAN       FAIR      60  44  55 NW3       30.11F
BUFFALO        FAIR      68  37  32 W7        30.18F
GILLETTE       FAIR      69  49  48 S14       30.12F
HULETT         FAIR      70  48  46 SW5       30.12F
NEWCASTLE      FAIR      73  45  35 MISG      30.13F

$$
WYZ014>020-022>026-101>103-010900-
CENTRAL WYOMING

CITY           SKY/WX    TMP DP  RH WIND       PRES   REMARKS
BIG PINEY      FAIR      55  30  38 NW6       30.34F
PINEDALE       FAIR      46  36  66 NW5       30.35S
DUBOIS         FAIR      54  30  40 NW12      30.37S
LANDER         FAIR      68  29  23 VRB3      30.21F
RIVERTON       FAIR      61  30  31 NW10      30.23R
CASPER         FAIR      57  42  57 N8        30.17F
DOUGLAS        FAIR      66  49  54 E10       30.15F

$$
WYZ021-027>030-104>119-010900-
SOUTHERN WYOMING

CITY           SKY/WX    TMP DP  RH WIND       PRES   REMARKS
EVANSTON       FAIR      64  26  23 CALM      30.35F
KEMMERER       FAIR      55  32  41 N10       30.35F
FORT BRIDGER   SUNNY     64  27  24 W9        30.36F
ROCK SPRINGS   FAIR      60  23  24 SW9       30.29F
DIXON          FAIR      54  29  38 E5        30.29F
RAWLINS        FAIR      54  33  45 N6        30.28S
SARATOGA       FAIR      61  41  48 SE7       30.30F
LARAMIE        FAIR      55  46  71 SE9       30.32F
CHEYENNE       FAIR      61  50  67 SW7       30.26F
TORRINGTON     FAIR      63  54  72 E7        30.12F
PINE BLUFFS    FAIR      66  52  59 S9        30.21F

$$



USA.gov is the U.S. government's official web portal to all federal, state and local government web resources and services.